[Iaude] MPEC G63: 2024 GR [a=1.05,e=0.10,i=3.3,H=27.6]
    mpec at cfa.harvard.edu 
    mpec at cfa.harvard.edu
       
    Fri Apr  5 09:01:24 EDT 2024
    
    
  
M.P.E.C. 2024-G63                                 Issued 2024 April 5, 12:59 UT
     The Minor Planet Electronic Circulars contain information on unusual
         minor planets, routine data on comets and natural satellites,
         and occasional editorial announcements.  They are published
    on behalf of Division F of the International Astronomical Union by the
          Minor Planet Center, Smithsonian Astrophysical Observatory,
                          Cambridge, MA 02138, U.S.A.
			  
             Prepared using the Tamkin Foundation Computer Network
                              MPC at CFA.HARVARD.EDU
            URL https://www.minorplanetcenter.net/    ISSN 1523-6714
                                    2024 GR                                     
Observations:
     K24G00R*HC2024 04 04.38214315 18 08.170+27 30 33.30               VEG063V00
     K24G00R HC2024 04 04.38718115 18 04.190+27 29 39.90               VEG063V00
     K24G00R HC2024 04 04.39219315 18 00.200+27 28 45.40         21.25GVEG063V00
     K24G00R HC2024 04 04.39720115 17 56.170+27 27 50.70         21.30GVEG063V00
     K24G00R KC2024 04 04.48378915 16 47.089+27 11 39.88         21.32GVEG063I52
     K24G00R KC2024 04 04.48771715 16 44.044+27 10 55.02         21.17GVEG063I52
     K24G00R KC2024 04 04.49559315 16 37.924+27 09 25.09         22.02GVEG063I52
     K24G00R 1C2024 04 04.97032 15 12 00.10 +25 40 26.9          20.5 VXEG063033
     K24G00R 1C2024 04 04.97143 15 11 59.29 +25 40 15.1          20.2 VXEG063033
     K24G00R 1C2024 04 04.97253 15 11 58.51 +25 40 04.2          20.2 VXEG063033
     K24G00R 1C2024 04 04.97363 15 11 57.68 +25 39 51.2          20.5 VXEG063033
     K24G00R 1C2024 04 04.97473 15 11 56.92 +25 39 40.2          21.0 VXEG063033
     K24G00R KC2024 04 05.31657115 08 27.096+24 38 49.35         20.6 GVEG063H01
     K24G00R KC2024 04 05.32671315 08 19.576+24 37 01.52         20.8 GVEG063H01
     K24G00R KC2024 04 05.33144915 08 16.034+24 36 11.42         20.9 GVEG063H01
     K24G00R KC2024 04 05.34126415 08 08.703+24 34 25.86         21.4 GVEG063H01
Observer details:
033 Karl Schwarzschild Observatory, Tautenburg.  Observers S. Melnikov, C.
    Hogner, F. Ludwig, M. Hartmann, B. Stecklum.  Measurer B. Stecklum.
    1.34-m f/3 Schmidt + CCD.
H01 Magdalena Ridge Observatory, Socorro.  Observers W. H. Ryan, E. V. Ryan.
    Measurer W. H. Ryan.  2.4-m f/8.9 Ritchey-Chretien + CCD.
I52 Steward Observatory, Mt. Lemmon Station.  Observer R. A. Kowalski.
    Measurers T. Beuden, V. F. Carvajal, D. Fay, J. B. Fazekas, D. C. Fuls, A.
    R. Gibbs, A. D. Grauer, H. Groeller, J. K. Hogan, R. A. Kowalski, S. M.
    Larson, G. J. Leonard, D. Rankin, R. L. Seaman, F. C. Shelly, K. W.
    Wierzchos.  1.0-m prime focus + CCD.
V00 Kitt Peak-Bok.  Observers V. F. Carvajal, K. W. Wierzchos.  Measurers M.
    J. Brucker, C. E. Woodward, T. Beuden, V. F. Carvajal, D. Fay, J. B.
    Fazekas, D. C. Fuls, A. R. Gibbs, H. Groeller, J. K. Hogan, R. A.
    Kowalski, S. M. Larson, C. Lejoly, G. J. Leonard, R. A. Mastaler, R. S.
    McMillan, D. Rankin, R. L. Seaman, F. C. Shelly, K. W. Wierzchos.  2.25-m
    reflector + 4x4K mosaic CCD.
Orbital elements:
2024 GR                                                  Earth MOID = 0.0200 AU
Epoch 2024 Mar. 31.0 TT = JDT 2460400.5                 Veres                   
M  63.53244              (2000.0)            P               Q                  
n   0.92144527     Peri.   85.86475     -0.44730716     -0.89388838             
a   1.0458989      Node    30.76131     +0.79585079     -0.41294331             
e   0.0985710      Incl.    3.32476     +0.40809047     -0.17447459             
P   1.07           H   27.62          G   0.15           U   7                  
Residuals in seconds of arc
240404 V00  0.5-  0.8-    240404 I52  0.1-  0.2+    240405 H01  0.2-  0.2-
240404 V00  0.1+  0.4+    240404 033  0.2+  0.1-    240405 H01  0.1+  0.1-
240404 V00  0.4+  0.3+    240404 033  0.0   0.1-    240405 H01  0.0   0.4+
240404 V00  0.1+  0.1+    240404 033  0.1+  0.7+    240405 H01  0.1+  0.1-
240404 I52  0.0   0.2-    240404 033  0.4-  0.6-
240404 I52  0.1+  0.1-    240404 033  0.0   0.1+
Ephemeris:
2024 GR                  a,e,i = 1.05, 0.10, 3                   q = 0.9428
Date    TT    R. A. (2000) Decl.     Delta      r    Elong.  Phase     V
2024 03 06    21 36 56.9 +54 20 22   0.04533 0.9723    62.9   114.7    25.3
...
2024 03 21    18 50 00.3 +56 12 12   0.02934 0.9930    83.2    95.1    23.3
...
2024 03 29    16 40 38.5 +45 05 29   0.02382 1.0054   106.6    72.1    22.0
...
2024 04 04    15 22 14.2 +28 41 02   0.02288 1.0151   130.3    48.7    21.3
2024 04 05    15 11 32.3 +25 38 09   0.02307 1.0167   134.4    44.6    21.2
2024 04 06    15 01 29.3 +22 35 34   0.02337 1.0183   138.5    40.6    21.1
...
2024 04 12    14 13 22.8 +06 01 40   0.02728 1.0282   160.6    18.9    20.8
...
2024 04 20    13 34 13.5 -08 39 46   0.03690 1.0414   174.8     5.0    21.0
...
2024 05 05    13 03 18.5 -20 42 54   0.06266 1.0655   154.6    23.9    22.9
M. P. C. Staff               (C) Copyright 2024 MPC           M.P.E.C. 2024-G63
    
    
More information about the Iaude
mailing list